Location: Fauquembergues
(50.6005°N, 2.0987°E)
Time: 08:11:58
(UTC+00:00)

BREEZE-M DEB (TANK) - Pass Details

Date: 14 July 2020
Orbit: 428 x 13237 km, 46.0° (Epoch: 14 August)

Event Time Altitude Azimuth Distance (km) Brightness Sun altitude
Rises 00:02:40 0° 244° (WSW) 7,756 8.4 -17.8°
Reaches altitude 10° 00:09:49 10° 240° (WSW) 4,993 7.3 -17.7°
Maximum altitude 00:19:36 45° 172° (S) 1,236 4.1 -17.6°
Drops below altitude 10° 00:23:19 10° 98° (E) 1,916 5.6 -17.5°
Sets 00:24:53 0° 90° (E) 2,590 6.3 -17.5°
